This is the latest recevied weather packets stored in our database for station/object W9LRT-WX. If no packets are shown the sender has not sent any weather packets the latest 10 day(s).
| Time | Temp. | Humidity | Pressure | Rain* | Wind** | Luminosity | Snow |
|---|---|---|---|---|---|---|---|
| 1778118733 | 10° C | 56% | 1012.5 hPa | 0 mm | - | 0 W/m² | - |
| 1778117833 | 10.56° C | 53% | 1012.3 hPa | 0 mm | - | 0 W/m² | - |
| 1778116934 | 11.11° C | 54% | 1012.2 hPa | 0 mm | - | 0 W/m² | - |
| 1778116033 | 11.11° C | 53% | 1012.1 hPa | 0 mm | - | 0 W/m² | - |
| 1778115130 | 11.11° C | 52% | 1012.1 hPa | 0 mm | - | 0 W/m² | - |
| 1778114228 | 11.67° C | 51% | 1011.9 hPa | 0 mm | - | 11 W/m² | - |
| 1778113329 | 11.67° C | 51% | 1011.9 hPa | 0 mm | - | 11 W/m² | - |
| 1778112428 | 12.22° C | 50% | 1011.8 hPa | 0 mm | - | 46 W/m² | - |
| 1778111527 | 12.22° C | 50% | 1011.7 hPa | 0 mm | - | 46 W/m² | - |
| 1778110627 | 12.22° C | 49% | 1011.8 hPa | 0 mm | - | 39 W/m² | - |
| 1778109726 | 12.78° C | 48% | 1011.8 hPa | 0 mm | - | 56 W/m² | - |
| 1778108826 | 12.78° C | 47% | 1011.8 hPa | 0 mm | - | 86 W/m² | - |
| 1778107926 | 12.78° C | 45% | 1011.6 hPa | 0 mm | - | 107 W/m² | - |
| 1778107025 | 13.33° C | 47% | 1011.6 hPa | 0 mm | - | 178 W/m² | - |
| 1778106125 | 12.78° C | 47% | 1011.6 hPa | 0 mm | - | 248 W/m² | - |
| 1778105223 | 12.78° C | 47% | 1011.6 hPa | 0 mm | - | 218 W/m² | - |
| 1778104324 | 13.33° C | 45% | 1011.6 hPa | 0 mm | - | 216 W/m² | - |
| 1778103423 | 13.33° C | 43% | 1011.5 hPa | 0 mm | - | 272 W/m² | - |
| 1778102523 | 13.33° C | 44% | 1011.5 hPa | 0 mm | - | 272 W/m² | - |
| 1778101626 | 13.33° C | 42% | 1011.7 hPa | 0 mm | - | 279 W/m² | - |
| 1778100723 | 13.89° C | 42% | 1011.8 hPa | 0 mm | - | 406 W/m² | - |
| 1778099821 | 13.89° C | 40% | 1011.9 hPa | 0 mm | - | 318 W/m² | - |
| 1778098922 | 14.44° C | 38% | 1012 hPa | 0 mm | - | 684 W/m² | - |
| 1778098022 | 13.33° C | 39% | 1012 hPa | 0 mm | - | 642 W/m² | - |
| 1778097122 | 13.33° C | 42% | 1012.1 hPa | 0 mm | - | 439 W/m² | - |
* Rain latest hour (hover to see other rain measurements)
** Current wind speed in m/s (hover to see current wind gust speed)